#timestamp,LO_Frequency,Hit,StdDev 
1518058815.8,286047004.3,Y
1518058835.6,286046998.2,P
1518058855.4,286046998.7,N
1518058875.3,286046998.3,N
1518058895.1,286046998.1,N
1518058915.9,286046998.5,N
1518058935.7,286046998.1,N
1518058955.5,286046998.1,N
1518058975.4,286047000.8,N
1518058995.2,286047001.1,N
1518059015.0,286047001.2,N
1518059015.9,286047001.2,N
1518059035.8,286046998.6,N
1518059055.6,286047001.2,N
1518059075.5,286047000.1,N
1518059095.3,286046998.5,N
1518059115.1,286046999.6,N
1518059135.9,286046999.4,N
1518059155.7,286046998.6,N
1518059175.5,286046998.4,N
1518059195.4,286046998.5,N
1518059215.2,286046999.3,N
1518059235.1,286046999.4,N
1518059236.0,286046999.4,N
1518059255.8,286046996.6,N
1518059275.6,286046998.9,N
1518059295.5,286046998.6,N
1518059315.3,286046998.3,N
1518059335.2,286046998.8,N
1518059355.9,286046998.9,N
1518059375.7,286047001.0,N
1518059395.6,286046999.0,N
1518059415.4,286046998.3,N
1518059435.2,286047000.8,N
1518059455.1,286046998.5,N
1518059456.0,286046998.5,N
1518059475.8,286046998.5,N
1518059495.7,286046998.1,N
1518059515.5,286046998.8,N
1518059535.3,286046998.3,N
1518059555.2,286046998.6,N
1518059575.0,286046998.6,N
1518059575.9,286046998.6,N
1518059595.7,286046998.6,N
1518059615.6,286047000.5,N
1518059635.4,286047001.0,N
1518059655.3,286047000.6,N
1518059675.1,286047000.6,N
1518059676.0,286047000.6,N
1518059695.8,286047001.2,N
1518059715.7,286047002.8,N
1518059735.5,286047000.6,N
1518059755.3,286046998.2,N
1518059775.2,286047000.8,N
1518059795.0,286047000.7,N
1518059795.9,286047000.7,N
1518059815.8,286047001.1,N
1518059835.6,286047001.0,N
1518059855.4,286047000.9,N
1518059875.3,286047000.1,N
1518059895.1,286047000.1,N
1518059915.9,286046998.1,N
1518059935.7,286046999.7,N
1518059955.5,286047002.8,N
1518059975.4,286047000.2,N
1518059995.2,286047000.3,N
1518060015.0,286047002.3,N
1518060015.9,286047002.3,N
1518060035.8,286047002.7,N
1518060055.6,286047000.6,N
1518060075.5,286046999.8,N
1518060095.3,286047002.7,N
1518060115.1,286046998.1,N
1518060135.9,286047000.1,N
1518060155.7,286047002.2,N
1518060175.5,286047002.3,N
1518060195.4,286047001.0,N
1518060215.2,286047000.7,N
1518060235.1,286046999.7,N
1518060236.0,286046999.7,N
1518060255.8,286047004.4,Y
1518060275.7,286047001.1,P
1518060295.5,286047001.2,P
1518060315.3,286047000.8,P
1518060335.2,286046998.5,Y
1518060355.0,286046999.5,P
1518060355.9,286046999.5,N
1518060375.8,286046999.3,N
1518060395.6,286046998.9,N
1518060415.5,286046997.3,Y
1518060435.3,286046997.1,P
1518060455.5,286046997.8,N
1518060475.3,286046996.9,N
1518060495.1,286046999.5,N
1518060515.9,286046996.5,Y
1518060535.7,286047001.6,P
1518060555.6,286047002.3,N
1518060575.4,286047001.0,N
1518060595.2,286047000.3,N
1518060615.1,286047002.0,N
1518060616.0,286047002.0,N
1518060635.8,286047000.4,N
1518060655.7,286047000.5,N
1518060675.5,286047000.8,N
1518060695.3,286047001.1,N
1518060715.2,286047000.3,N
1518060735.9,286047000.4,N
1518060755.7,286047000.5,N
1518060775.6,286046999.7,N
1518060795.4,286047000.2,N
1518060815.3,286047000.4,N
1518060835.1,286047000.5,N
1518060836.0,286047000.5,N
1518060855.8,286047002.8,Y
1518060875.7,286046999.0,P
1518060895.5,286046998.9,N
1518060915.4,286046999.9,N
1518060935.2,286046998.1,N
1518060955.0,286047000.6,N
1518060955.9,286047000.6,N
1518060975.8,286047000.6,N
1518060995.6,286047000.9,N
1518061015.5,286047000.2,N
1518061035.3,286046998.7,N
1518061055.1,286046998.6,N
1518061075.9,286046998.4,N
1518061095.7,286046998.4,N
1518061115.6,286046996.6,Y
1518061135.4,286046998.6,P
1518061155.2,286046998.2,P
1518061175.1,286047000.6,N
1518061176.0,286047000.6,N
1518061195.8,286047000.7,N
1518061215.7,286047000.7,N
1518061235.5,286047000.1,N
1518061255.4,286047000.1,N
1518061275.2,286047002.4,N
1518061295.0,286047002.6,N
1518061295.9,286047002.6,N
1518061315.8,286047002.5,N
1518061335.6,286047002.7,N
1518061355.4,286047002.0,N
1518061375.3,286047002.4,N
1518061395.1,286047001.8,N
1518061415.9,286046999.8,N
1518061435.7,286047002.1,N
1518061455.5,286047001.7,N
1518061475.4,286047003.9,N
1518061495.2,286047003.9,N
1518061515.0,286047004.4,N
1518061515.9,286047004.4,N
1518061535.8,286047002.3,N
1518061555.7,286047000.2,N
1518061575.5,286046999.7,N
1518061595.4,286047000.8,N
1518061615.2,286047000.2,N
1518061635.0,286046999.7,N
1518061635.9,286046999.7,N
1518061655.8,286047001.9,N
1518061675.6,286047002.7,N
1518061695.5,286047002.5,N
1518061715.3,286047002.6,N
1518061735.1,286047002.3,N
1518061755.9,286047001.6,N
1518061775.7,286046999.8,N
1518061795.5,286046999.9,N
1518061815.4,286047000.6,N
1518061835.2,286046998.7,N
1518061855.1,286047001.2,N
1518061856.0,286047001.2,N
1518061875.8,286046998.8,N
1518061895.6,286046998.4,N
1518061915.5,286047001.2,N
1518061935.3,286046998.6,N
1518061955.2,286046998.6,N
1518061975.9,286047001.2,N
1518061995.7,286046998.7,N
1518062015.6,286046997.1,N
1518062035.4,286046997.4,N
1518062055.2,286046995.0,N
1518062075.1,286046997.2,N
1518062076.0,286046997.2,N
1518062095.8,286046997.3,N
1518062115.7,286046997.5,N
1518062135.5,286046995.2,N
1518062155.3,286046995.1,N
1518062175.2,286046996.4,N
1518062195.0,286046993.8,N
1518062195.9,286046993.8,N
1518062215.7,286046994.5,N
1518062235.6,286046994.7,N
1518062255.4,286046992.9,N
1518062275.3,286046994.3,N
1518062295.1,286046992.5,N
1518062315.8,286046993.0,N
1518062335.7,286046990.5,Y
1518062355.5,286046998.0,P
1518062375.4,286046996.2,P
1518062395.2,286046995.4,P
